Regional Weather Roundup
Issued by NWS

Home | Current Version | Previous Version | Graphics & Text | Print | Product List | Glossary On
Versions: 1 2 3 4 5 6 7 8 9 10 11 12 13 14 15 16 17 18 19 20 21 22 23 24 25 26 27 28 29 30 31 32 33 34 35 36 37 38 39 40 41 42 43 44 45 46 47 48 49 50
000
ASUS43 KIND 031609
RWRIN

WEATHER ROUNDUP FOR INDIANA
NATIONAL WEATHER SERVICE INDIANAPOLIS IN
1200 PM EDT THU SEP 03 2015

NOTE: "FAIR" INDICATES FEW OR NO CLOUDS BELOW 12,000 FEET WITH NO
SIGNIFICANT WEATHER AND/OR OBSTRUCTIONS TO VISIBILITY.

* - STATION DOES NOT REPORT WEATHER SUCH AS PRECIPITATION OR FOG.

+ - STATION NOT QUALITY CONTROLLED BY THE NATIONAL WEATHER SERVICE.
    USE DATA WITH CAUTION...ESPECIALLY DEWPOINT AND RELATIVE
    HUMIDITY OBSERVATIONS.

INZ001>003-010>013-019-020-031700-
NORTHWEST INDIANA

CITY           SKY/WX    TMP DP  RH WIND       PRES   REMARKS
GARY /AIRPORT/ PTSUNNY   86  64  48 SW9       29.96S
KNOX *+        SUNNY     82  66  57 SW10      29.98S
LA PORTE +     SUNNY     85  71  62 SW8       29.99S
MICHIGAN CITY+ CLOUDY    84  66  54 SW9       29.98S
MONTICELLO +   SUNNY     86  72  63 W8        29.99S
RENSSELAER +   SUNNY     86  72  62 SW9G18    29.99S
VALPARAISO     SUNNY     85  70  60 SW10      29.99R

$$

LMZ046-743>745-031700-
SOUTHERN LAKE MICHIGAN

STATION/POSITION TIME  TEMP    WIND        PRES    WAVE
                       AIR SEA DIR/SP/G            HT
                 (UTC) (F)     (DEG/KT/KT) (MB)    (FT)
BURNS HARBOR     1500   82     240/  8/ 14 1014.9S
MICHIGAN CITY    1500   80     190/  8/  9   N/A
5NW MICH CITY    1600   78 73  250/  4/  6   N/A     1

$$

INZ004-005-014>016-021>024-031700-
NORTH CENTRAL INDIANA

CITY           SKY/WX    TMP DP  RH WIND       PRES   REMARKS
ELKHART        PTSUNNY   84  68  58 SW8       29.99S
GOSHEN         SUNNY     85  69  58 SW12      29.99S
LOGANSPORT +   SUNNY     86  63  45 SW10G17   30.01S
PERU/GRISSOM   SUNNY     86  70  59 W12       30.00S
ROCHESTER +    SUNNY     88  68  51 W9        30.00S
SOUTH BEND     PTSUNNY   83  69  62 SW6       29.99R
WARSAW +       SUNNY     84  68  58 SW8       30.00S

$$

INZ006>009-017-018-025>027-031700-
NORTHEAST INDIANA

CITY           SKY/WX    TMP DP  RH WIND       PRES   REMARKS
ANGOLA *+      SUNNY     88  72  58 W9        30.00S
AUBURN +       SUNNY     84  66  54 W6        30.01S
FORT WAYNE     MOSUNNY   84  70  62 W12       30.01F
HUNTINGTON +   SUNNY     85  65  50 SW7       30.00S

$$

INZ028-029-035-036-043>045-051>053-031700-
WEST CENTRAL INDIANA

CITY           SKY/WX    TMP DP  RH WIND       PRES   REMARKS
CRAWFORDSVL +  SUNNY     83  66  57 SW6       30.03S
GREENCASTLE +  SUNNY     84  64  51 CALM      30.04S
LAFAYETTE      SUNNY     86  69  56 W10       29.99F
TERRE HAUTE    SUNNY     87  68  52 W10       30.02F

$$

INZ030>032-037>040-046>048-054>057-064-065-031700-
CENTRAL INDIANA

CITY           SKY/WX    TMP DP  RH WIND       PRES   REMARKS
ANDERSON       MOSUNNY   84  63  48 SW6       30.04S
FISHERS *+     SUNNY     84  73  70 SW8       30.02F
FRANKFORT +    SUNNY     86  72  63 SW8       30.04S
GREENWOOD *+   SUNNY     84  66  54 W7        30.04S
INDIANAPOLIS   MOSUNNY   87  67  51 SW13      30.02F
-EAGLE CREEK   SUNNY     85  68  56 VRB6      30.02S
KOKOMO *+      SUNNY     88  70  55 SW13      30.01S
MARION +       SUNNY     85  59  42 SW9       30.02S
MT COMFORT *+  MOSUNNY   86  59  39 SW9       30.03F
SHELBYVILLE    SUNNY     87  68  52 SW8       30.03S
ZIONSVILLE +   SUNNY     85  67  53 W10       30.04S

$$

INZ033-034-041-042-049-050-058-059-031700-
EAST CENTRAL INDIANA

CITY           SKY/WX    TMP DP  RH WIND       PRES   REMARKS
MUNCIE         SUNNY     83  69  62 VRB6      30.03S

$$

INZ060-061-067>069-081>083-085>088-031700-
SOUTHWEST INDIANA

CITY           SKY/WX    TMP DP  RH WIND       PRES   REMARKS
EVANSVILLE     SUNNY     87  67  51 CALM      30.03F
HUNTINGBURG *+ SUNNY     88  70  55 W3        30.03F
WASHINGTON +   SUNNY     87  62  42 W5        30.02F

$$

INZ062-063-066-070>080-084-089>092-031700-
SOUTH CENTRAL AND SOUTHEAST INDIANA

CITY           SKY/WX    TMP DP  RH WIND       PRES   REMARKS
BLOOMINGTON    SUNNY     85  69  58 W7        30.04F
NORTH VERNON + SUNNY     84  68  58 CALM      30.05S
SEYMOUR +      SUNNY     90  66  45 SW5       30.03F

$$




USA.gov is the U.S. government's official web portal to all federal, state and local government web resources and services.